| time (UTC) | temp F | wind direction | speed knots | gust knots | rain 1hr in | rain 24hr in | rain mn in | humidity % | barometer mb |
| 20260905034509 | 58 | 253 | 0.9 | 0.0 | 0.00 | 0.00 | 0.01 | 86 | 1002.5 |
| 20260905033008 | 58 | 265 | 0.0 | 0.0 | 0.00 | 0.00 | 0.01 | 85 | 1002.4 |
| 20260905031513 | 58 | 214 | 0.9 | 0.0 | 0.00 | 0.00 | 0.01 | 85 | 1002.5 |
| 20260905030006 | 58 | 242 | 0.0 | 0.0 | 0.00 | 0.00 | 0.01 | 85 | 1002.3 |
| 20260905024504 | 58 | 223 | 0.0 | 0.0 | 0.00 | 0.00 | 0.01 | 84 | 1002.1 |
| 20260905023009 | 58 | 246 | 0.9 | 0.0 | 0.00 | 0.00 | 0.01 | 85 | 1002.0 |
| 20260905021501 | 58 | 275 | 0.9 | 0.0 | 0.00 | 0.00 | 0.01 | 84 | 1001.9 |
| 20260905014559 | 58 | 246 | 0.9 | 0.0 | 0.00 | 0.00 | 0.01 | 85 | 1001.5 |
| 20260905013117 | 58 | 280 | 0.9 | 0.0 | 0.00 | 0.00 | 0.01 | 87 | 1001.2 |
| 20260905011606 | 58 | 250 | 1.7 | 0.0 | 0.00 | 0.00 | 0.01 | 87 | 1001.0 |
| 20260905010100 | 58 | 240 | 0.9 | 0.0 | 0.00 | 0.00 | 0.01 | 87 | 1001.0 |
| 20260905004555 | 58 | 248 | 0.9 | 0.0 | 0.00 | 0.00 | 0.01 | 88 | 1000.9 |
| 20260905003052 | 58 | 238 | 0.0 | 0.0 | 0.00 | 0.00 | 0.01 | 88 | 1000.7 |
| 20260905001552 | 58 | 225 | 1.7 | 0.0 | 0.00 | 0.00 | 0.01 | 87 | 1000.6 |
| 20260905000049 | 58 | 206 | 0.9 | 0.0 | 0.00 | 0.00 | 0.01 | 88 | 1000.5 |
| 20260904234550 | 58 | 221 | 0.9 | 0.0 | 0.00 | 0.00 | 0.01 | 88 | 1000.4 |
| 20260904233048 | 58 | 250 | 0.9 | 0.0 | 0.00 | 0.00 | 0.01 | 88 | 1000.4 |
| 20260904231546 | 58 | 224 | 0.0 | 0.0 | 0.00 | 0.00 | 0.00 | 89 | 1000.2 |
| 20260904230100 | 58 | 256 | 0.0 | 0.0 | 0.00 | 0.00 | 0.00 | 89 | 1000.3 |
| 20260904224546 | 58 | 226 | 0.0 | 0.0 | 0.00 | 0.00 | 0.00 | 89 | 1000.3 |
| 20260904223102 | 58 | 232 | 0.9 | 0.0 | 0.00 | 0.00 | 0.00 | 89 | 1000.1 |
| 20260904221541 | 58 | 242 | 1.7 | 0.0 | 0.00 | 0.00 | 0.00 | 89 | 1000.1 |
| 20260904220044 | 58 | 292 | 0.9 | 0.0 | 0.00 | 0.00 | 0.00 | 89 | 1000.0 |
| 20260904214547 | 58 | 232 | 0.9 | 0.0 | 0.00 | 0.00 | 0.02 | 90 | 999.9 |
| 20260904213041 | 57 | 308 | 0.9 | 0.0 | 0.00 | 0.00 | 0.02 | 91 | 999.9 |
| 20260904211539 | 57 | 211 | 0.9 | 0.0 | 0.00 | 0.00 | 0.02 | 91 | 999.7 |
| 20260904210037 | 57 | 254 | 0.9 | 0.0 | 0.00 | 0.00 | 0.02 | 91 | 999.6 |
| 20260904204538 | 57 | 284 | 0.9 | 0.0 | 0.00 | 0.00 | 0.02 | 92 | 999.3 |
| 20260904203036 | 56 | 229 | 0.9 | 0.0 | 0.00 | 0.00 | 0.02 | 92 | 999.3 |
| 20260904201542 | 57 | 242 | 1.7 | 0.0 | 0.00 | 0.00 | 0.02 | 93 | 999.1 |
| 20260904200043 | 57 | 244 | 1.7 | 0.0 | 0.00 | 0.00 | 0.02 | 93 | 998.9 |
| 20260904194534 | 58 | 245 | 0.0 | 0.0 | 0.00 | 0.00 | 0.02 | 93 | 998.7 |
| 20260904193039 | 57 | 244 | 0.0 | 0.0 | 0.00 | 0.00 | 0.02 | 93 | 998.6 |
| 20260904191532 | 57 | 204 | 0.0 | 0.0 | 0.00 | 0.00 | 0.02 | 93 | 998.7 |
| 20260904190031 | 57 | 257 | 0.0 | 0.0 | 0.00 | 0.00 | 0.02 | 92 | 998.4 |
| 20260904184529 | 58 | 234 | 0.9 | 0.0 | 0.00 | 0.00 | 0.02 | 92 | 998.4 |
| 20260904183028 | 58 | 244 | 0.0 | 0.0 | 0.00 | 0.00 | 0.02 | 92 | 998.2 |
| 20260904181527 | 58 | 225 | 0.0 | 0.0 | 0.00 | 0.00 | 0.02 | 91 | 998.2 |
| 20260904180026 | 59 | 226 | 0.0 | 0.0 | 0.00 | 0.00 | 0.02 | 92 | 998.1 |
| 20260904174526 | 59 | 226 | 0.0 | 0.0 | 0.00 | 0.00 | 0.02 | 92 | 997.9 |
| 20260904173025 | 59 | 224 | 0.0 | 0.0 | 0.00 | 0.00 | 0.02 | 91 | 998.0 |
| 20260904171550 | 59 | 226 | 0.0 | 0.0 | 0.00 | 0.00 | 0.02 | 91 | 998.3 |
| 20260904170025 | 60 | 227 | 0.0 | 0.0 | 0.00 | 0.00 | 0.02 | 91 | 998.0 |
| 20260904164524 | 60 | 281 | 0.0 | 0.0 | 0.00 | 0.00 | 0.02 | 91 | 997.8 |
| 20260904163040 | 60 | 306 | 0.9 | 0.0 | 0.00 | 0.00 | 0.02 | 92 | 997.8 |
| 20260904161522 | 61 | 253 | 0.0 | 0.0 | 0.00 | 0.00 | 0.02 | 92 | 998.0 |
| 20260904160022 | 61 | 218 | 0.0 | 0.0 | 0.00 | 0.00 | 0.02 | 92 | 998.0 |
| 20260904154522 | 61 | 220 | 0.0 | 0.0 | 0.00 | 0.00 | 0.02 | 92 | 998.2 |
| 20260904153029 | 61 | 220 | 0.0 | 0.0 | 0.00 | 0.00 | 0.02 | 92 | 998.1 |
| 20260904151534 | 61 | 246 | 0.0 | 0.0 | 0.00 | 0.00 | 0.02 | 92 | 998.0 |
| 20260904150022 | 61 | 259 | 0.9 | 0.0 | 0.00 | 0.00 | 0.02 | 93 | 997.9 |
| 20260904144520 | 62 | 239 | 0.0 | 0.0 | 0.00 | 0.00 | 0.02 | 93 | 998.2 |
| 20260904143017 | 61 | 246 | 0.0 | 0.0 | 0.00 | 0.00 | 0.02 | 93 | 998.2 |
| 20260904141517 | 60 | 222 | 0.0 | 0.0 | 0.00 | 0.00 | 0.02 | 94 | 998.3 |
| 20260904140016 | 59 | 286 | 0.0 | 0.0 | 0.00 | 0.00 | 0.02 | 93 | 998.1 |
| 20260904134520 | 58 | 286 | 0.0 | 0.0 | 0.00 | 0.00 | 0.02 | 93 | 998.3 |
| 20260904133013 | 58 | 286 | 0.0 | 0.0 | 0.00 | 0.00 | 0.02 | 93 | 998.4 |
| 20260904131511 | 58 | 287 | 0.0 | 0.0 | 0.00 | 0.00 | 0.02 | 92 | 998.5 |
| 20260904130010 | 59 | 287 | 0.0 | 0.0 | 0.00 | 0.00 | 0.02 | 92 | 998.7 |
| 20260904124510 | 60 | 227 | 0.0 | 0.0 | 0.00 | 0.00 | 0.02 | 92 | 998.6 |
| 20260904123008 | 60 | 227 | 0.0 | 0.0 | 0.00 | 0.00 | 0.01 | 92 | 998.5 |
| 20260904121506 | 60 | 227 | 0.0 | 0.0 | 0.00 | 0.00 | 0.01 | 92 | 998.9 |
| 20260904120005 | 60 | 223 | 0.0 | 0.0 | 0.00 | 0.00 | 0.01 | 92 | 999.2 |
| 20260904114502 | 60 | 215 | 0.9 | 0.0 | 0.00 | 0.00 | 0.01 | 92 | 999.4 |
| 20260904113001 | 60 | 218 | 1.7 | 0.0 | 0.00 | 0.00 | 0.01 | 92 | 999.6 |
| 20260904111602 | 60 | 225 | 1.7 | 0.0 | 0.00 | 0.00 | 0.01 | 92 | 999.5 |
| 20260904110100 | 61 | 229 | 1.7 | 0.0 | 0.00 | 0.00 | 0.01 | 92 | 999.4 |
| 20260904104559 | 61 | 234 | 2.6 | 0.0 | 0.00 | 0.00 | 0.01 | 92 | 999.6 |
| 20260904103057 | 61 | 230 | 1.7 | 0.0 | 0.00 | 0.00 | 0.01 | 91 | 999.6 |
| 20260904101555 | 61 | 223 | 3.5 | 0.0 | 0.00 | 0.00 | 0.01 | 91 | 1000.0 |
| 20260904100053 | 61 | 230 | 3.5 | 0.0 | 0.00 | 0.00 | 0.01 | 91 | 1000.3 |
| 20260904094554 | 61 | 223 | 2.6 | 0.0 | 0.00 | 0.00 | 0.01 | 91 | 1000.3 |
| 20260904093050 | 60 | 228 | 2.6 | 0.0 | 0.00 | 0.00 | 0.01 | 91 | 1000.7 |
| 20260904091548 | 60 | 232 | 0.9 | 0.0 | 0.00 | 0.00 | 0.01 | 90 | 1001.0 |
| 20260904090046 | 60 | 239 | 1.7 | 0.0 | 0.00 | 0.00 | 0.01 | 90 | 1001.4 |
| 20260904084554 | 60 | 225 | 1.7 | 0.0 | 0.00 | 0.00 | 0.01 | 90 | 1001.4 |
| 20260904083042 | 60 | 221 | 0.9 | 0.0 | 0.00 | 0.00 | 0.01 | 90 | 1001.8 |
| 20260904081541 | 60 | 221 | 1.7 | 0.0 | 0.00 | 0.00 | 0.01 | 89 | 1001.8 |
| 20260904080100 | 60 | 229 | 1.7 | 0.0 | 0.00 | 0.00 | 0.01 | 89 | 1001.9 |
| 20260904074538 | 60 | 233 | 1.7 | 0.0 | 0.00 | 0.00 | 0.01 | 90 | 1002.0 |
| 20260904073037 | 60 | 227 | 0.9 | 0.0 | 0.00 | 0.00 | 0.01 | 90 | 1002.1 |
| 20260904071535 | 59 | 232 | 0.9 | 0.0 | 0.00 | 0.00 | 0.01 | 90 | 1002.3 |
| 20260904070136 | 59 | 229 | 0.0 | 0.0 | 0.00 | 0.00 | 0.01 | 90 | 1002.4 |
| 20260904064532 | 59 | 229 | 0.0 | 0.0 | 0.00 | 0.00 | 0.01 | 90 | 1002.8 |
| 20260904063030 | 59 | 229 | 0.0 | 0.0 | 0.00 | 0.00 | 0.01 | 90 | 1002.9 |
| 20260904061528 | 58 | 229 | 0.0 | 0.0 | 0.00 | 0.00 | 0.01 | 89 | 1003.2 |
| 20260904060027 | 59 | 229 | 0.0 | 0.0 | 0.00 | 0.00 | 0.01 | 89 | 1003.3 |
| 20260904054533 | 59 | 224 | 0.0 | 0.0 | 0.00 | 0.00 | 0.01 | 88 | 1003.4 |
| 20260904053027 | 59 | 246 | 0.0 | 0.0 | 0.00 | 0.00 | 0.01 | 88 | 1003.8 |
| 20260904051522 | 59 | 227 | 0.0 | 0.0 | 0.00 | 0.00 | 0.01 | 87 | 1003.9 |
| 20260904050022 | 59 | 227 | 0.0 | 0.0 | 0.00 | 0.00 | 0.00 | 87 | 1003.9 |
| 20260904044531 | 59 | 225 | 0.0 | 0.0 | 0.00 | 0.00 | 0.00 | 86 | 1004.0 |
| 20260904043034 | 59 | 245 | 0.0 | 0.0 | 0.00 | 0.00 | 0.00 | 86 | 1004.0 |
| 20260904041520 | 59 | 222 | 0.0 | 0.0 | 0.00 | 0.00 | 0.00 | 86 | 1003.9 |
| 20260904040019 | 59 | 227 | 0.9 | 0.0 | 0.00 | 0.00 | 0.00 | 86 | 1003.7 |